This is the latest recevied weather packets stored in our database for station/object KD2FKI. If no packets are shown the sender has not sent any weather packets the latest 10 day(s).
| Time | Temp. | Humidity | Pressure | Rain* | Wind** | Luminosity | Snow |
|---|---|---|---|---|---|---|---|
| 1777612243 | 6.11° C | 86% | - | 0 mm | - | - | - |
| 1777611634 | 6.11° C | 86% | - | 0 mm | - | - | - |
| 1777611039 | 6.67° C | 84% | - | 0 mm | - | - | - |
| 1777610447 | 6.11° C | 84% | - | 0 mm | - | - | - |
| 1777609836 | 6.11° C | 84% | - | 0 mm | - | - | - |
| 1777609244 | 6.67° C | 84% | - | 0 mm | - | - | - |
| 1777608635 | 6.67° C | 81% | - | 0 mm | - | - | - |
| 1777608042 | 7.22° C | 79% | - | 0 mm | - | - | - |
| 1777607432 | 7.78° C | 78% | - | 0 mm | - | - | - |
| 1777606858 | 7.78° C | 76% | - | 0 mm | - | - | - |
| 1777606229 | 8.33° C | 74% | - | 0 mm | - | - | - |
| 1777605656 | 8.89° C | 73% | - | 0 mm | - | - | - |
| 1777605047 | 8.89° C | 72% | - | 0 mm | - | - | - |
| 1777604453 | 8.89° C | 72% | - | 0 mm | - | - | - |
| 1777603843 | 8.33° C | 75% | - | 0 mm | - | - | - |
| 1777603232 | 8.33° C | 77% | - | 0 mm | - | - | - |
| 1777602640 | 8.33° C | 75% | - | 0 mm | - | - | - |
| 1777602030 | 9.44° C | 70% | - | 0 mm | - | - | - |
| 1777601438 | 9.44° C | 69% | - | 0 mm | - | - | - |
| 1777600845 | 10° C | 69% | - | 0 mm | - | - | - |
| 1777600259 | 10° C | 68% | - | 0 mm | - | - | - |
| 1777599643 | 10.56° C | 66% | - | 0 mm | - | - | - |
| 1777599033 | 11.11° C | 64% | - | 0 mm | - | - | - |
| 1777598441 | 11.67° C | 63% | - | 0 mm | - | - | - |
| 1777597830 | 11.67° C | 63% | - | 0 mm | - | - | - |
* Rain latest hour (hover to see other rain measurements)
** Current wind speed in m/s (hover to see current wind gust speed)